TimeEST,TemperatureF,Dew PointF,Humidity,Sea Level PressureIn,VisibilityMPH,Wind Direction,Wind SpeedMPH,Gust SpeedMPH,PrecipitationIn,Events,Conditions,WindDirDegrees,DateUTC
12:15 AM,28.4,21.2,74,30.22,10.0,Calm,Calm,-,N/A,,Clear,0,2014-02-01 05:15:00
12:35 AM,26.6,21.2,80,30.22,10.0,Calm,Calm,-,N/A,,Clear,0,2014-02-01 05:35:00
12:55 AM,26.6,21.2,80,30.22,10.0,Calm,Calm,-,N/A,,Clear,0,2014-02-01 05:55:00
1:15 AM,26.6,19.4,74,30.22,10.0,Calm,Calm,-,N/A,,Clear,0,2014-02-01 06:15:00
1:35 AM,24.8,19.4,80,30.23,10.0,Calm,Calm,-,N/A,,Clear,0,2014-02-01 06:35:00
1:55 AM,24.8,19.4,80,30.23,10.0,Calm,Calm,-,N/A,,Clear,0,2014-02-01 06:55:00
2:15 AM,24.8,19.4,80,30.24,10.0,Calm,Calm,-,N/A,,Clear,0,2014-02-01 07:15:00
2:35 AM,24.8,21.2,86,30.24,10.0,Calm,Calm,-,N/A,,Clear,0,2014-02-01 07:35:00
2:55 AM,24.8,21.2,86,30.24,10.0,Calm,Calm,-,N/A,,Clear,0,2014-02-01 07:55:00
3:15 AM,26.6,21.2,80,30.24,10.0,Calm,Calm,-,N/A,,Clear,0,2014-02-01 08:15:00
3:35 AM,26.6,21.2,80,30.24,10.0,Calm,Calm,-,N/A,,Clear,0,2014-02-01 08:35:00
3:55 AM,26.6,21.2,80,30.25,9.0,Calm,Calm,-,N/A,,Clear,0,2014-02-01 08:55:00
4:15 AM,26.6,21.2,80,30.25,10.0,Calm,Calm,-,N/A,,Clear,0,2014-02-01 09:15:00
4:35 AM,26.6,21.2,80,30.26,10.0,Calm,Calm,-,N/A,,Clear,0,2014-02-01 09:35:00
4:55 AM,24.8,21.2,86,30.26,10.0,Calm,Calm,-,N/A,,Clear,0,2014-02-01 09:55:00
5:15 AM,26.6,21.2,80,30.26,10.0,Calm,Calm,-,N/A,,Clear,0,2014-02-01 10:15:00
5:35 AM,26.6,21.2,80,30.28,10.0,Calm,Calm,-,N/A,,Clear,0,2014-02-01 10:35:00
5:55 AM,26.6,23.0,86,30.28,9.0,Calm,Calm,-,N/A,,Clear,0,2014-02-01 10:55:00
6:15 AM,26.6,23.0,86,30.29,9.0,Calm,Calm,-,N/A,,Clear,0,2014-02-01 11:15:00
6:35 AM,24.8,21.2,86,30.30,10.0,Calm,Calm,-,N/A,,Clear,0,2014-02-01 11:35:00
6:55 AM,24.8,21.2,86,30.30,9.0,Calm,Calm,-,N/A,,Clear,0,2014-02-01 11:55:00
7:15 AM,23.0,19.4,86,30.29,8.0,Calm,Calm,-,N/A,,Clear,0,2014-02-01 12:15:00
7:35 AM,23.0,19.4,86,30.29,7.0,Calm,Calm,-,N/A,,Clear,0,2014-02-01 12:35:00
7:55 AM,23.0,19.4,86,30.30,7.0,Calm,Calm,-,N/A,,Clear,0,2014-02-01 12:55:00
8:15 AM,24.8,19.4,80,30.31,8.0,Calm,Calm,-,N/A,,Clear,0,2014-02-01 13:15:00
8:35 AM,24.8,19.4,80,30.31,8.0,Calm,Calm,-,N/A,,Clear,0,2014-02-01 13:35:00
8:55 AM,26.6,19.4,74,30.31,8.0,Calm,Calm,-,N/A,,Clear,0,2014-02-01 13:55:00
9:15 AM,30.2,19.4,64,30.30,8.0,Calm,Calm,-,N/A,,Clear,0,2014-02-01 14:15:00
9:35 AM,32.0,19.4,60,30.30,10.0,Calm,Calm,-,N/A,,Clear,0,2014-02-01 14:35:00
9:55 AM,35.6,19.4,52,30.30,10.0,Calm,Calm,-,N/A,,Clear,0,2014-02-01 14:55:00
10:15 AM,37.4,19.4,48,30.30,10.0,Calm,Calm,-,N/A,,Clear,0,2014-02-01 15:15:00
10:35 AM,39.2,19.4,45,30.29,9.0,Calm,Calm,-,N/A,,Clear,0,2014-02-01 15:35:00
10:55 AM,41.0,19.4,42,30.29,10.0,South,3.5,-,N/A,,Clear,170,2014-02-01 15:55:00
11:15 AM,41.0,19.4,42,30.29,10.0,South,5.8,-,N/A,,Clear,170,2014-02-01 16:15:00
11:35 AM,41.0,19.4,42,30.28,10.0,South,6.9,-,N/A,,Clear,180,2014-02-01 16:35:00
11:55 AM,41.0,19.4,42,30.27,10.0,South,5.8,-,N/A,,Clear,180,2014-02-01 16:55:00
12:15 PM,41.0,21.2,45,30.26,10.0,South,6.9,-,N/A,,Clear,180,2014-02-01 17:15:00
12:35 PM,42.8,21.2,42,30.25,10.0,South,4.6,-,N/A,,Clear,180,2014-02-01 17:35:00
12:55 PM,44.6,19.4,37,30.23,10.0,SSE,4.6,-,N/A,,Clear,160,2014-02-01 17:55:00
1:15 PM,44.6,23.0,43,30.21,10.0,South,6.9,-,N/A,,Clear,180,2014-02-01 18:15:00
1:35 PM,44.6,21.2,39,30.21,10.0,SSE,4.6,-,N/A,,Clear,150,2014-02-01 18:35:00
1:55 PM,44.6,19.4,37,30.19,10.0,SSE,10.4,-,N/A,,Clear,150,2014-02-01 18:55:00
2:15 PM,44.6,21.2,39,30.19,10.0,SE,8.1,-,N/A,,Clear,140,2014-02-01 19:15:00
2:35 PM,44.6,21.2,39,30.18,10.0,SSE,8.1,-,N/A,,Clear,160,2014-02-01 19:35:00
2:55 PM,44.6,21.2,39,30.17,10.0,SSE,9.2,-,N/A,,Clear,150,2014-02-01 19:55:00
3:15 PM,44.6,21.2,39,30.16,10.0,SSE,6.9,-,N/A,,Clear,150,2014-02-01 20:15:00
3:35 PM,44.6,21.2,39,30.14,10.0,SSE,5.8,-,N/A,,Clear,160,2014-02-01 20:35:00
3:55 PM,44.6,23.0,43,30.15,10.0,SSE,3.5,-,N/A,,Clear,150,2014-02-01 20:55:00
4:15 PM,44.6,23.0,43,30.15,10.0,South,4.6,-,N/A,,Clear,170,2014-02-01 21:15:00
4:35 PM,44.6,21.2,39,30.15,10.0,SSE,5.8,-,N/A,,Clear,160,2014-02-01 21:35:00
4:55 PM,44.6,23.0,43,30.15,10.0,SSE,5.8,-,N/A,,Clear,160,2014-02-01 21:55:00
5:15 PM,42.8,23.0,46,30.15,10.0,SSE,4.6,-,N/A,,Clear,150,2014-02-01 22:15:00
5:35 PM,41.0,23.0,49,30.14,10.0,SE,4.6,-,N/A,,Clear,140,2014-02-01 22:35:00
5:55 PM,41.0,23.0,49,30.15,10.0,SSE,3.5,-,N/A,,Clear,150,2014-02-01 22:55:00
6:15 PM,39.2,23.0,52,30.15,10.0,Calm,Calm,-,N/A,,Clear,0,2014-02-01 23:15:00
6:35 PM,35.6,24.8,65,30.14,10.0,Calm,Calm,-,N/A,,Clear,0,2014-02-01 23:35:00
6:55 PM,35.6,23.0,60,30.13,10.0,Calm,Calm,-,N/A,,Clear,0,2014-02-01 23:55:00
7:15 PM,35.6,24.8,65,30.12,10.0,ESE,3.5,-,N/A,,Clear,120,2014-02-02 00:15:00
7:35 PM,35.6,24.8,65,30.11,10.0,ESE,3.5,-,N/A,,Clear,120,2014-02-02 00:35:00
7:55 PM,37.4,26.6,65,30.10,10.0,ESE,3.5,-,N/A,,Clear,110,2014-02-02 00:55:00
10:45 PM,28.4,24.8,86,30.06,10.0,Calm,Calm,-,N/A,,Clear,0,2014-02-02 03:45:00
10:50 PM,26.6,24.8,93,30.05,10.0,Calm,Calm,-,N/A,,Clear,0,2014-02-02 03:50:00
11:15 PM,26.6,24.8,93,30.04,10.0,Calm,Calm,-,N/A,,Clear,0,2014-02-02 04:15:00
11:35 PM,26.6,24.8,93,30.02,10.0,Calm,Calm,-,N/A,,Clear,0,2014-02-02 04:35:00
11:55 PM,26.6,24.8,93,30.01,10.0,Calm,Calm,-,N/A,,Clear,0,2014-02-02 04:55:00